| Back to River Map | <<< Previous Forecast Point | | | Next Forecast Point >>> | Printer Version | Graph Version |  |
|
TRUCKEE RIVER - WADSWORTH (WADN2)
| Latitude: 39.63º N | Longitude: 119.28º W | Elevation: 4070 Feet | | Forecast Type: Official Location |
| Location: Washoe County in Nevada | Bulletin Group: Eastern Sierra | River Group: Eastern Sierra |
| Issuance Time: | May 06 2026 at 7:40 AM PDT | Next Issuance: | May 07 2026 at 9:00 AM PDT
| |
| Action/Monitor: 13.0 Feet | Minor Flood: 15.0 Feet | Moderate Flood: 17.0 Feet | Major Flood: 19.0 Feet |
# Tabular Observed and Forecast Hydrograph Information
#
# Location: Truckee River - Wadsworth (WADN2)
#
# File Generation Time: 05/06/2026 at 07:40 AM PDT
# Data Interval: 1 Hour
#
# Most Recent Date & Time of Maximum Observed: 05/03/2026 at 07:00 PM PDT
# Maximum Observed Stage: 6.18 Feet
# Maximum Observed Flow: 913 cfs
#
# Earliest Date & Time of Maximum Forecast: 05/06/2026 at 07:00 PM PDT
# Maximum Forecast Stage: 5.94 Feet
# Maximum Forecast Flow: 786 cfs
#
# OBSERVED
#
# Date & Time (Local) Stage (Feet) Flow (cfs) Trend Observed Status
# ---------------------------------------------------------------------------------
05/01/2026 07 AM PDT 5.99 811 Normal
05/01/2026 08 AM PDT 6.03 832 + Normal
05/01/2026 09 AM PDT 6.03 832 0 Normal
05/01/2026 10 AM PDT 6.02 827 - Normal
05/01/2026 11 AM PDT 5.98 806 - Normal
05/01/2026 12 PM PDT 5.96 796 - Normal
05/01/2026 01 PM PDT 5.99 811 + Normal
05/01/2026 02 PM PDT 5.97 801 - Normal
05/01/2026 03 PM PDT 6.00 817 + Normal
05/01/2026 04 PM PDT 5.99 811 - Normal
05/01/2026 05 PM PDT 5.98 806 - Normal
05/01/2026 06 PM PDT 5.98 806 0 Normal
05/01/2026 07 PM PDT 5.96 796 - Normal
05/01/2026 08 PM PDT 5.98 806 + Normal
05/01/2026 09 PM PDT 6.01 822 + Normal
05/01/2026 10 PM PDT 5.99 811 - Normal
05/01/2026 11 PM PDT 5.99 811 0 Normal
05/02/2026 12 AM PDT 5.98 806 - Normal
05/02/2026 01 AM PDT 5.97 801 - Normal
05/02/2026 02 AM PDT 5.98 806 + Normal
05/02/2026 03 AM PDT 5.96 796 - Normal
05/02/2026 04 AM PDT 5.96 796 0 Normal
05/02/2026 05 AM PDT 5.96 796 0 Normal
05/02/2026 06 AM PDT 5.95 791 - Normal
05/02/2026 07 AM PDT 5.96 796 + Normal
05/02/2026 08 AM PDT 5.94 786 - Normal
05/02/2026 09 AM PDT 5.93 780 - Normal
05/02/2026 10 AM PDT 5.91 770 - Normal
05/02/2026 11 AM PDT 5.92 775 + Normal
05/02/2026 12 PM PDT 5.90 765 - Normal
05/02/2026 01 PM PDT 5.91 770 + Normal
05/02/2026 02 PM PDT 5.89 760 - Normal
05/02/2026 03 PM PDT 5.91 770 + Normal
05/02/2026 04 PM PDT 5.93 780 + Normal
05/02/2026 05 PM PDT 5.93 780 0 Normal
05/02/2026 06 PM PDT 5.93 780 0 Normal
05/02/2026 07 PM PDT 5.95 791 + Normal
05/02/2026 08 PM PDT 5.93 780 - Normal
05/02/2026 09 PM PDT 5.94 786 + Normal
05/02/2026 10 PM PDT 5.95 791 + Normal
05/02/2026 11 PM PDT 5.99 811 + Normal
05/03/2026 12 AM PDT 5.97 801 - Normal
05/03/2026 01 AM PDT 5.98 806 + Normal
05/03/2026 02 AM PDT 5.97 801 - Normal
05/03/2026 03 AM PDT 5.98 806 + Normal
05/03/2026 04 AM PDT 5.99 811 + Normal
05/03/2026 05 AM PDT 5.99 811 0 Normal
05/03/2026 06 AM PDT 6.00 817 + Normal
05/03/2026 07 AM PDT 6.01 822 + Normal
05/03/2026 08 AM PDT 6.04 838 + Normal
05/03/2026 09 AM PDT 6.05 843 + Normal
05/03/2026 10 AM PDT 6.03 832 - Normal
05/03/2026 11 AM PDT 6.04 838 + Normal
05/03/2026 12 PM PDT 6.04 838 0 Normal
05/03/2026 01 PM PDT 6.08 859 + Normal
05/03/2026 02 PM PDT 6.09 864 + Normal
05/03/2026 03 PM PDT 6.05 843 - Normal
05/03/2026 04 PM PDT 6.07 854 + Normal
05/03/2026 05 PM PDT 6.08 859 + Normal
05/03/2026 06 PM PDT 6.10 870 + Normal
05/03/2026 07 PM PDT 6.18 913 + Normal
05/03/2026 08 PM PDT 6.14 891 - Normal
05/03/2026 09 PM PDT 6.11 875 - Normal
05/03/2026 10 PM PDT 6.13 886 + Normal
05/03/2026 11 PM PDT 6.13 886 0 Normal
05/04/2026 12 AM PDT 6.13 886 0 Normal
05/04/2026 01 AM PDT 6.12 881 - Normal
05/04/2026 02 AM PDT 6.11 875 - Normal
05/04/2026 03 AM PDT 6.10 870 - Normal
05/04/2026 04 AM PDT 6.11 875 + Normal
05/04/2026 05 AM PDT 6.11 875 0 Normal
05/04/2026 06 AM PDT 6.11 875 0 Normal
05/04/2026 07 AM PDT 6.10 870 - Normal
05/04/2026 08 AM PDT 6.10 870 0 Normal
05/04/2026 09 AM PDT 6.13 886 + Normal
05/04/2026 10 AM PDT 6.10 870 - Normal
05/04/2026 11 AM PDT 6.07 854 - Normal
05/04/2026 12 PM PDT 6.04 838 - Normal
05/04/2026 01 PM PDT 6.04 838 0 Normal
05/04/2026 02 PM PDT 6.04 838 0 Normal
05/04/2026 03 PM PDT 6.06 848 + Normal
05/04/2026 04 PM PDT 6.11 875 + Normal
05/04/2026 05 PM PDT 6.11 875 0 Normal
05/04/2026 06 PM PDT 6.08 859 - Normal
05/04/2026 07 PM PDT 6.04 838 - Normal
05/04/2026 08 PM PDT 6.02 827 - Normal
05/04/2026 09 PM PDT 6.01 822 - Normal
05/04/2026 10 PM PDT 5.98 806 - Normal
05/04/2026 11 PM PDT 5.96 796 - Normal
05/05/2026 12 AM PDT 5.97 801 + Normal
05/05/2026 01 AM PDT 5.97 801 0 Normal
05/05/2026 02 AM PDT 5.96 796 - Normal
05/05/2026 03 AM PDT 5.96 796 0 Normal
05/05/2026 04 AM PDT 6.04 838 + Normal
05/05/2026 05 AM PDT 6.10 870 + Normal
05/05/2026 06 AM PDT 6.13 886 + Normal
05/05/2026 07 AM PDT 6.10 870 - Normal
05/05/2026 08 AM PDT 6.07 854 - Normal
05/05/2026 09 AM PDT 6.06 848 - Normal
05/05/2026 10 AM PDT 6.06 848 0 Normal
05/05/2026 11 AM PDT 6.05 843 - Normal
05/05/2026 12 PM PDT 6.07 854 + Normal
05/05/2026 01 PM PDT 6.09 864 + Normal
05/05/2026 02 PM PDT 6.12 881 + Normal
05/05/2026 03 PM PDT 6.13 886 + Normal
05/05/2026 04 PM PDT 6.08 859 - Normal
05/05/2026 05 PM PDT 6.11 875 + Normal
05/05/2026 06 PM PDT 6.08 859 - Normal
05/05/2026 07 PM PDT 6.12 881 + Normal
05/05/2026 08 PM PDT 6.11 875 - Normal
05/05/2026 09 PM PDT 6.08 859 - Normal
05/05/2026 10 PM PDT 6.07 854 - Normal
05/05/2026 11 PM PDT 6.06 848 - Normal
05/06/2026 12 AM PDT 6.01 822 - Normal
05/06/2026 01 AM PDT 5.96 796 - Normal
05/06/2026 02 AM PDT 5.95 791 - Normal
05/06/2026 03 AM PDT 5.94 786 - Normal
05/06/2026 04 AM PDT 5.92 775 - Normal
05/06/2026 05 AM PDT 5.91 770 - Normal
05/06/2026 06 AM PDT 5.90 765 - Normal
05/06/2026 07 AM PDT 5.89 760 - Normal
#
# FORECAST
#
# Date & Time (Local) Stage (Feet) Flow (cfs) Trend Forecast Status
# ---------------------------------------------------------------------------------
05/06/2026 08 AM PDT 5.89 760 Normal
05/06/2026 09 AM PDT 5.88 755 - Normal
05/06/2026 10 AM PDT 5.87 750 - Normal
05/06/2026 11 AM PDT 5.87 750 0 Normal
05/06/2026 12 PM PDT 5.87 750 0 Normal
05/06/2026 01 PM PDT 5.87 750 0 Normal
05/06/2026 02 PM PDT 5.88 755 + Normal
05/06/2026 03 PM PDT 5.88 755 0 Normal
05/06/2026 04 PM PDT 5.89 760 + Normal
05/06/2026 05 PM PDT 5.91 770 + Normal
05/06/2026 06 PM PDT 5.93 780 + Normal
05/06/2026 07 PM PDT 5.94 786 + Normal
05/06/2026 08 PM PDT 5.93 780 - Normal
05/06/2026 09 PM PDT 5.92 775 - Normal
05/06/2026 10 PM PDT 5.91 770 - Normal
05/06/2026 11 PM PDT 5.89 760 - Normal
05/07/2026 12 AM PDT 5.88 755 - Normal
05/07/2026 01 AM PDT 5.87 750 - Normal
05/07/2026 02 AM PDT 5.85 740 - Normal
05/07/2026 03 AM PDT 5.84 735 - Normal
05/07/2026 04 AM PDT 5.83 730 - Normal
05/07/2026 05 AM PDT 5.82 725 - Normal
05/07/2026 06 AM PDT 5.81 720 - Normal
05/07/2026 07 AM PDT 5.80 715 - Normal
05/07/2026 08 AM PDT 5.79 710 - Normal
05/07/2026 09 AM PDT 5.78 705 - Normal
05/07/2026 10 AM PDT 5.77 700 - Normal
05/07/2026 11 AM PDT 5.77 700 0 Normal
05/07/2026 12 PM PDT 5.76 695 - Normal
05/07/2026 01 PM PDT 5.76 695 0 Normal
05/07/2026 02 PM PDT 5.75 690 - Normal
05/07/2026 03 PM PDT 5.75 690 0 Normal
05/07/2026 04 PM PDT 5.75 690 0 Normal
05/07/2026 05 PM PDT 5.76 695 + Normal
05/07/2026 06 PM PDT 5.76 695 0 Normal
05/07/2026 07 PM PDT 5.76 695 0 Normal
05/07/2026 08 PM PDT 5.77 700 + Normal
05/07/2026 09 PM PDT 5.77 700 0 Normal
05/07/2026 10 PM PDT 5.78 705 + Normal
05/07/2026 11 PM PDT 5.78 705 0 Normal
05/08/2026 12 AM PDT 5.78 705 0 Normal
05/08/2026 01 AM PDT 5.78 705 0 Normal
05/08/2026 02 AM PDT 5.77 700 - Normal
05/08/2026 03 AM PDT 5.77 700 0 Normal
05/08/2026 04 AM PDT 5.76 695 - Normal
05/08/2026 05 AM PDT 5.76 695 0 Normal
05/08/2026 06 AM PDT 5.75 690 - Normal
05/08/2026 07 AM PDT 5.75 690 0 Normal
05/08/2026 08 AM PDT 5.74 686 - Normal
05/08/2026 09 AM PDT 5.74 686 0 Normal
05/08/2026 10 AM PDT 5.73 681 - Normal
05/08/2026 11 AM PDT 5.73 681 0 Normal
05/08/2026 12 PM PDT 5.72 676 - Normal
05/08/2026 01 PM PDT 5.72 676 0 Normal
05/08/2026 02 PM PDT 5.72 676 0 Normal
05/08/2026 03 PM PDT 5.72 676 0 Normal
05/08/2026 04 PM PDT 5.73 681 + Normal
05/08/2026 05 PM PDT 5.73 681 0 Normal
05/08/2026 06 PM PDT 5.74 686 + Normal
05/08/2026 07 PM PDT 5.74 686 0 Normal
05/08/2026 08 PM PDT 5.75 690 + Normal
05/08/2026 09 PM PDT 5.75 690 0 Normal
05/08/2026 10 PM PDT 5.75 690 0 Normal
05/08/2026 11 PM PDT 5.75 690 0 Normal
05/09/2026 12 AM PDT 5.75 690 0 Normal
05/09/2026 01 AM PDT 5.75 690 0 Normal
05/09/2026 02 AM PDT 5.75 690 0 Normal
05/09/2026 03 AM PDT 5.74 686 - Normal
05/09/2026 04 AM PDT 5.74 686 0 Normal
05/09/2026 05 AM PDT 5.73 681 - Normal
05/09/2026 06 AM PDT 5.72 676 - Normal
05/09/2026 07 AM PDT 5.71 671 - Normal
05/09/2026 08 AM PDT 5.71 671 0 Normal
05/09/2026 09 AM PDT 5.70 666 - Normal
05/09/2026 10 AM PDT 5.70 666 0 Normal
05/09/2026 11 AM PDT 5.69 662 - Normal
05/09/2026 12 PM PDT 5.69 662 0 Normal
05/09/2026 01 PM PDT 5.69 662 0 Normal
05/09/2026 02 PM PDT 5.68 657 - Normal
05/09/2026 03 PM PDT 5.68 657 0 Normal
05/09/2026 04 PM PDT 5.69 662 + Normal
05/09/2026 05 PM PDT 5.69 662 0 Normal
05/09/2026 06 PM PDT 5.70 666 + Normal
05/09/2026 07 PM PDT 5.70 666 0 Normal
05/09/2026 08 PM PDT 5.71 671 + Normal
05/09/2026 09 PM PDT 5.71 671 0 Normal
05/09/2026 10 PM PDT 5.71 671 0 Normal
05/09/2026 11 PM PDT 5.72 676 + Normal
05/10/2026 12 AM PDT 5.72 676 0 Normal
05/10/2026 01 AM PDT 5.72 676 0 Normal
05/10/2026 02 AM PDT 5.71 671 - Normal
05/10/2026 03 AM PDT 5.71 671 0 Normal
05/10/2026 04 AM PDT 5.71 671 0 Normal
05/10/2026 05 AM PDT 5.70 666 - Normal
05/10/2026 06 AM PDT 5.69 662 - Normal
05/10/2026 07 AM PDT 5.68 657 - Normal
05/10/2026 08 AM PDT 5.68 657 0 Normal
05/10/2026 09 AM PDT 5.67 652 - Normal
05/10/2026 10 AM PDT 5.67 652 0 Normal
05/10/2026 11 AM PDT 5.67 652 0 Normal
05/10/2026 12 PM PDT 5.66 647 - Normal
05/10/2026 01 PM PDT 5.66 647 0 Normal
05/10/2026 02 PM PDT 5.66 647 0 Normal
05/10/2026 03 PM PDT 5.66 647 0 Normal
05/10/2026 04 PM PDT 5.66 647 0 Normal
05/10/2026 05 PM PDT 5.66 647 0 Normal
05/10/2026 06 PM PDT 5.67 652 + Normal
05/10/2026 07 PM PDT 5.67 652 0 Normal
05/10/2026 08 PM PDT 5.68 657 + Normal
05/10/2026 09 PM PDT 5.68 657 0 Normal
05/10/2026 10 PM PDT 5.69 662 + Normal
05/10/2026 11 PM PDT 5.69 662 0 Normal
05/11/2026 12 AM PDT 5.69 662 0 Normal
05/11/2026 01 AM PDT 5.69 662 0 Normal
05/11/2026 02 AM PDT 5.69 662 0 Normal
05/11/2026 03 AM PDT 5.69 662 0 Normal
05/11/2026 04 AM PDT 5.68 657 - Normal
05/11/2026 05 AM PDT 5.68 657 0 Normal
#
# NOTE 1: Stages are rounded to the nearest hundredth (.01) of a foot.
# NOTE 2: Flows are rounded to the nearest (1) cfs.
# NOTE 3: Trends are determined using hourly change in unrounded stage and flow.
# NOTE 4: Maximum Values are determined using unrounded stage and flow.
|